[[{"header":{"parameterUnit":"m.s-1","parameterCategory":1,"la1":30.2991,"la2":30.254,"lo1":-89.0895,"lo2":-89.0444,"dy":0.0017,"dx":0.0017,"nx":28,"ny":28,"refTime":"2025-02-07T09:00:00:Z","depth":0,"parameterNumber":2,"parameterNumberName":"U-component_of_WINDS"},"data":[0,0,0,0,0,0,0,0,0,0,0,0,0,0,0,0,0,0,0,0,0,0,0,0,0,0,0,0,0,0,0,0,0,0,0,0,0,0,0,0,0,0,0,0,0,0,0,0,0,0,0,0,0,0,0,0,0,0,-1.073,-1.073,0,-1.0757,-1.0757,-1.0757,-1.077,-1.077,-1.077,-1.077,-1.0797,-1.0797,-1.0798,0,0,0,0,0,0,0,0,0,0,0,0,0,-1.0689,-1.069,-1.073,-1.073,-1.0731,-1.0757,-1.0757,-1.0757,-1.077,-1.077,-1.077,-1.077,-1.0796,-1.0797,-1.0798,0,0,0,0,0,0,0,0,0,0,0,0,0,-1.071,-1.069,-1.073,-1.074,-1.0741,-1.0757,-1.0757,-1.0758,-1.077,-1.077,-1.077,-1.077,-1.0796,-1.0797,-1.0798,-1.0805,0,0,-1.0802,-1.0802,0,0,0,0,0,0,0,0,-1.0709,-1.0712,-1.0738,-1.074,-1.0741,-1.076,-1.0752,-1.0773,-1.077,-1.0759,-1.077,-1.077,-1.0784,-1.0786,-1.0791,-1.0806,-1.0807,-1.0802,-1.0802,-1.0803,-1.0803,0,0,0,0,0,0,0,-1.0708,-1.0711,-1.0741,-1.0739,-1.074,-1.0743,-1.0746,-1.0756,-1.0772,-1.076,-1.0761,-1.0764,-1.0785,-1.079,-1.0792,-1.0808,-1.0802,-1.0803,-1.0803,-1.0804,-1.0829,-1.0829,0,0,0,0,0,0,-1.0705,-1.0709,-1.074,-1.0741,-1.0725,-1.0744,-1.0747,-1.0754,-1.0771,-1.0774,-1.0764,-1.0765,-1.0789,-1.0791,-1.0793,-1.0802,-1.0803,-1.0804,-1.0804,-1.0829,-1.0829,-1.0829,0,0,0,0,0,0,-1.0704,-1.0707,-1.0739,-1.0726,-1.073,-1.0745,-1.0752,-1.0754,-1.076,-1.0775,-1.0777,-1.0767,-1.0789,-1.0792,-1.0802,-1.0803,-1.0804,-1.0805,-1.0829,-1.0829,-1.0829,-1.082,0,0,0,0,0,0,-1.0702,-1.0707,-1.071,-1.0726,-1.0731,-1.0747,-1.0752,-1.0755,-1.0762,-1.0763,-1.0778,-1.078,-1.0789,-1.08,-1.0803,-1.0805,-1.0806,-1.0829,-1.0829,-1.0829,-1.082,-1.082,-1.082,0,0,0,0,0,-1.0701,-1.0706,-1.071,-1.0714,-1.0735,-1.0747,-1.075,-1.076,-1.0762,-1.0765,-1.0774,-1.078,-1.0803,-1.0801,-1.0804,-1.0806,-1.0829,-1.0829,-1.0829,-1.0821,-1.082,-1.082,0,0,0,0,0,0,-1.069,-1.0709,-1.0713,-1.0723,-1.0734,-1.075,-1.0754,-1.0759,-1.0769,-1.077,-1.0782,-1.0785,-1.0794,-1.0801,-1.0799,-1.0814,-1.0816,-1.0817,-1.0809,-1.0808,-1.0808,-1.0806,-1.0807,0,0,0,0,0,-1.0689,-1.0698,-1.0713,-1.0721,-1.0726,-1.0739,-1.0745,-1.0752,-1.0763,-1.0767,-1.0777,-1.0788,-1.0797,-1.0803,-1.0813,-1.0821,-1.0825,-1.0824,-1.0824,-1.0823,-1.0824,-1.0829,-1.0829,-1.0829,-1.0829,-1.0829,0,0,-1.0687,-1.0698,-1.0703,-1.0719,-1.0728,-1.0737,-1.0743,-1.0752,-1.0758,-1.0768,-1.0779,-1.0787,-1.0799,-1.0808,-1.0813,-1.0815,-1.0824,-1.0824,-1.0823,-1.0824,-1.0829,-1.0829,-1.0829,-1.0829,-1.0829,-1.0829,0,0,-1.0687,-1.0696,-1.0704,-1.0712,-1.0726,-1.0734,-1.0736,-1.0751,-1.0756,-1.0767,-1.0775,-1.0782,-1.0798,-1.0807,-1.0813,-1.0816,-1.0821,-1.0818,-1.0816,-1.0821,-1.0821,-1.0821,-1.0821,-1.0822,-1.0819,-1.0819,-1.0819,0,-1.0682,-1.0696,-1.0707,-1.0715,-1.0722,-1.0732,-1.0739,-1.0747,-1.0763,-1.0767,-1.0769,-1.0789,-1.0798,-1.0809,-1.081,-1.0815,-1.0817,-1.0817,-1.082,-1.082,-1.082,-1.0821,-1.0821,-1.0818,-1.0818,-1.0818,-1.0819,0,-1.069,-1.0699,-1.0703,-1.0718,-1.0725,-1.0733,-1.0745,-1.0751,-1.0757,-1.0765,-1.0775,-1.0786,-1.0798,-1.0801,-1.0807,-1.0813,-1.0814,-1.0818,-1.082,-1.0819,-1.082,-1.0821,-1.0818,-1.0818,-1.0818,-1.0818,0,0,-1.0684,-1.0704,-1.0706,-1.0713,-1.0728,-1.0735,-1.0743,-1.0755,-1.0759,-1.077,-1.0777,-1.079,-1.0793,-1.08,-1.0807,-1.0811,-1.0812,-1.0814,-1.0815,-1.0813,-1.082,-1.0817,-1.0817,-1.0816,-1.0816,-1.0816,-1.0818,0,-1.0686,-1.0702,-1.0711,-1.0722,-1.0731,-1.074,-1.0747,-1.0757,-1.0764,-1.0772,-1.0781,-1.079,-1.0794,-1.0798,-1.0802,-1.0811,-1.0814,-1.0811,-1.0822,-1.0822,-1.0819,-1.0818,-1.0815,-1.0817,-1.0819,-1.0819,-1.0819,0,-1.0691,-1.0701,-1.0713,-1.0727,-1.0731,-1.0737,-1.0748,-1.0756,-1.0767,-1.0772,-1.078,-1.0787,-1.0795,-1.0797,-1.0809,-1.0807,-1.0812,-1.0817,-1.0817,-1.0819,-1.0821,-1.0819,-1.0817,-1.0818,-1.082,-1.082,-1.082,0,-1.0686,-1.0702,-1.0712,-1.0717,-1.0733,-1.0737,-1.0744,-1.0755,-1.0762,-1.0771,-1.0775,-1.0786,-1.0792,-1.0799,-1.0809,-1.0809,-1.0819,-1.0822,-1.0824,-1.0824,-1.0826,-1.0825,-1.0825,-1.0829,-1.0829,-1.0829,-1.0829,0,-1.0688,-1.0695,-1.0709,-1.0715,-1.0723,-1.0734,-1.0741,-1.0749,-1.0758,-1.0766,-1.0774,-1.078,-1.0792,-1.08,-1.0808,-1.0816,-1.0818,-1.0823,-1.0825,-1.0822,-1.0821,-1.0826,-1.0826,-1.0829,-1.0829,-1.0829,-1.0829,0,-1.0683,-1.0693,-1.0704,-1.0718,-1.0722,-1.0727,-1.0739,-1.0745,-1.0753,-1.0762,-1.0764,-1.0777,-1.0786,-1.0796,-1.0809,-1.0814,-1.0822,-1.0825,-1.0819,-1.082,-1.0821,-1.0821,-1.0823,-1.0824,-1.0827,-1.0827,-1.0827,0,-1.0683,-1.0689,-1.0704,-1.0709,-1.0716,-1.0725,-1.0731,-1.0741,-1.0748,-1.076,-1.0764,-1.0775,-1.0783,-1.0798,-1.0808,-1.0818,-1.0821,-1.0821,-1.0822,-1.0819,-1.0821,-1.082,-1.0821,-1.082,-1.082,-1.082,-1.082,0,-1.0683,-1.0688,-1.0697,-1.0707,-1.0715,-1.0723,-1.0732,-1.0736,-1.0749,-1.0755,-1.0765,-1.0772,-1.0785,-1.0795,-1.0806,-1.0813,-1.0818,-1.082,-1.0821,-1.0818,-1.0814,-1.0816,-1.0817,-1.082,-1.082,-1.082,-1.082,-1.082,-1.0681,-1.0686,-1.0697,-1.0707,-1.0715,-1.0723,-1.0729,-1.0737,-1.0746,-1.0758,-1.0763,-1.0773,-1.0783,-1.0799,-1.0805,-1.0813,-1.0815,-1.0816,-1.0816,-1.0817,-1.0816,-1.0813,-1.0815,-1.0815,-1.0815,-1.0815,-1.0815,0,-1.0681,-1.0688,-1.0697,-1.0709,-1.0717,-1.0721,-1.0732,-1.0737,-1.0746,-1.0755,-1.0764,-1.0775,-1.0784,-1.0795,-1.0805,-1.0809,-1.0812,-1.0811,-1.0811,-1.0813,-1.0814,-1.0812,-1.0809,-1.0809,-1.0809,-1.0809,-1.0809,-1.0809,-1.0682,-1.0691,-1.0696,-1.0709,-1.0717,-1.0726,-1.0732,-1.0739,-1.0747,-1.0759,-1.0767,-1.0774,-1.0783,-1.0794,-1.0803,-1.0806,-1.0809,-1.0808,-1.0811,-1.0812,-1.0813,-1.0813,-1.0812,-1.0808,-1.0808,-1.081,-1.081,-1.081]},{"header":{"parameterUnit":"m.s-1","parameterCategory":1,"la1":30.2991,"la2":30.254,"lo1":-89.0895,"lo2":-89.0444,"dy":0.0017,"dx":0.0017,"nx":28,"ny":28,"refTime":"2025-02-07T09:00:00:Z","depth":0,"parameterNumber":3,"parameterNumberName":"V-component_of_WINDS"},"data":[0,0,0,0,0,0,0,0,0,0,0,0,0,0,0,0,0,0,0,0,0,0,0,0,0,0,0,0,0,0,0,0,0,0,0,0,0,0,0,0,0,0,0,0,0,0,0,0,0,0,0,0,0,0,0,0,0,0,2.9438,2.9439,0,2.9523,2.9524,2.9525,2.953,2.9529,2.9528,2.9527,2.9614,2.9617,2.962,0,0,0,0,0,0,0,0,0,0,0,0,0,2.9279,2.9282,2.9438,2.9439,2.944,2.9523,2.9524,2.9525,2.953,2.9529,2.9527,2.9526,2.9613,2.9616,2.962,0,0,0,0,0,0,0,0,0,0,0,0,0,2.9354,2.9283,2.9437,2.9452,2.9454,2.9522,2.9524,2.9525,2.953,2.9529,2.9527,2.9526,2.9611,2.9616,2.9621,2.968,0,0,2.9636,2.9638,0,0,0,0,0,0,0,0,2.935,2.936,2.9449,2.9451,2.9454,2.9514,2.95,2.9577,2.953,2.9501,2.9527,2.9525,2.9582,2.9589,2.9608,2.9684,2.9688,2.9636,2.9639,2.9641,2.9642,0,0,0,0,0,0,0,2.9345,2.9357,2.9471,2.945,2.9453,2.9454,2.9464,2.9514,2.9549,2.9504,2.9504,2.9514,2.9583,2.9603,2.961,2.9689,2.9636,2.964,2.9643,2.9645,2.9819,2.9821,0,0,0,0,0,0,2.9337,2.9352,2.9469,2.9474,2.9397,2.9459,2.9469,2.9496,2.9548,2.9555,2.9516,2.9514,2.9596,2.9604,2.9613,2.9688,2.9641,2.9645,2.9648,2.9818,2.982,2.9822,0,0,0,0,0,0,2.9333,2.9347,2.9465,2.9413,2.9428,2.9463,2.9494,2.9499,2.9519,2.9557,2.9563,2.953,2.9595,2.9606,2.9664,2.9691,2.9648,2.9652,2.9816,2.9818,2.9821,2.9836,0,0,0,0,0,0,2.9329,2.9346,2.9369,2.9414,2.9431,2.9514,2.9495,2.9501,2.9528,2.9527,2.9573,2.9579,2.9595,2.9656,2.9669,2.9697,2.9656,2.9813,2.9817,2.982,2.9833,2.9839,2.9843,0,0,0,0,0,2.9323,2.9369,2.937,2.9384,2.946,2.9516,2.9526,2.9544,2.953,2.9553,2.9578,2.9577,2.9685,2.9662,2.9676,2.9706,2.9812,2.9816,2.982,2.9831,2.9838,2.9843,0,0,0,0,0,0,2.9326,2.9375,2.9377,2.9438,2.9473,2.9517,2.9547,2.955,2.9589,2.9586,2.9606,2.9616,2.9674,2.9695,2.9669,2.9767,2.9747,2.9754,2.9751,2.9758,2.9763,2.9757,2.966,0,0,0,0,0,2.9334,2.9375,2.9415,2.9466,2.9483,2.9512,2.9537,2.9547,2.9584,2.9599,2.9627,2.9662,2.9705,2.9732,2.9772,2.9835,2.9846,2.9863,2.9868,2.9872,2.9878,2.9915,2.9923,2.9835,2.9835,2.9834,0,0,2.935,2.9382,2.9407,2.9467,2.9496,2.9538,2.9524,2.9569,2.9601,2.9605,2.9662,2.9684,2.9725,2.9786,2.9814,2.9805,2.9905,2.9877,2.988,2.9884,2.992,2.9928,2.9936,2.9837,2.9837,2.9836,0,0,2.9403,2.943,2.9477,2.9505,2.9548,2.9567,2.9578,2.9621,2.9636,2.9693,2.9698,2.9736,2.9807,2.9837,2.9861,2.9925,2.9927,2.9938,2.9965,3.0001,3.0008,3.0014,3.0039,3.0048,2.9943,2.9943,2.9944,0,2.9418,2.9483,2.95,2.9546,2.9573,2.9578,2.9626,2.9652,2.9706,2.9725,2.9714,2.9805,2.9833,2.9902,2.9918,2.9936,2.9951,2.9934,3.0005,3.0012,3.0018,3.0042,3.0051,2.9945,2.9945,2.9944,2.9944,0,2.9501,2.9545,2.9577,2.963,2.966,2.9706,2.9731,2.976,2.9767,2.9787,2.9846,2.9879,2.9928,2.9944,2.9952,3.0015,3.0009,3.0001,2.9983,3.0028,3.0051,3.006,2.9946,2.9946,2.9946,2.9945,0,0,2.9558,2.962,2.9632,2.9657,2.9704,2.9739,2.9786,2.9833,2.9859,2.9895,2.9936,2.9996,2.999,3.0018,3.0029,3.006,3.0111,3.0049,3.0051,3.0062,3.0185,3.0192,3.0202,3.0112,3.0114,3.0115,3.0182,0,2.9618,2.9702,2.9719,2.9792,2.9834,2.984,2.9881,2.9915,2.9934,2.9973,2.9995,3.0038,3.0026,3.0043,3.0074,3.0098,3.0137,3.0093,3.0151,3.0153,3.0143,3.0214,3.0221,3.0283,3.0191,3.0193,3.0194,0,2.9699,2.9739,2.9816,2.986,2.9878,2.9914,2.996,2.9997,3.0035,3.0048,3.0079,3.0087,3.0136,3.0113,3.0182,3.0153,3.0177,3.0192,3.0195,3.0203,3.0178,3.0226,3.0303,3.0313,3.0208,3.0207,3.0206,0,2.9737,2.9809,2.9865,2.9886,2.9937,2.9963,2.9985,3.0022,3.005,3.009,3.0109,3.0153,3.0178,3.0213,3.0232,3.0214,3.0301,3.0279,3.0313,3.0313,3.0333,3.0332,3.0418,3.0345,3.0345,3.0345,3.0344,0,2.9803,2.9851,2.9883,2.9918,2.9972,2.999,3.0043,3.0065,3.0098,3.0138,3.0144,3.0181,3.0204,3.0244,3.026,3.0316,3.0326,3.0339,3.0343,3.034,3.0338,3.0357,3.0354,3.0347,3.0347,3.0346,3.0346,0,2.9855,2.9878,2.994,2.9984,2.9996,3.0034,3.0071,3.0105,3.0125,3.0175,3.0188,3.0219,3.0267,3.0289,3.0348,3.0359,3.0423,3.0423,3.041,3.0412,3.0446,3.0444,3.0549,3.0565,3.0479,3.048,3.0481,0,2.9897,2.9934,2.9982,3.0009,3.0032,3.0076,3.0105,3.0124,3.0154,3.0201,3.023,3.0278,3.0318,3.0394,3.0422,3.0468,3.047,3.0504,3.0477,3.0473,3.0474,3.0472,3.0477,3.0509,3.051,3.0511,3.0511,0,2.997,2.998,3.0021,3.0067,3.0101,3.0138,3.0174,3.0196,3.0222,3.0255,3.0304,3.0335,3.0396,3.0444,3.0492,3.0515,3.0518,3.0519,3.053,3.0529,3.0521,3.0528,3.0426,3.0517,3.0517,3.0516,3.0516,3.0516,3.002,3.0054,3.0093,3.0139,3.0169,3.0202,3.0237,3.0261,3.0303,3.0354,3.0363,3.0416,3.0454,3.0519,3.0544,3.0586,3.0578,3.0593,3.0597,3.0601,3.0604,3.0512,3.0594,3.0594,3.0594,3.0593,3.0593,0,3.0095,3.0121,3.0163,3.0214,3.0251,3.025,3.029,3.0321,3.0367,3.0403,3.0442,3.0499,3.0546,3.0578,3.0626,3.0653,3.0656,3.0665,3.0665,3.0671,3.0607,3.0594,3.0663,3.0662,3.0662,3.0662,3.0662,3.0662,3.0139,3.0197,3.0211,3.0284,3.0309,3.0361,3.0385,3.0416,3.0445,3.0509,3.0548,3.0568,3.0603,3.0653,3.0696,3.0704,3.0723,3.0733,3.0741,3.0682,3.0675,3.0668,3.0656,3.0736,3.0736,3.0801,3.0802,3.0802]}]]